Time,TemperatureF,DewpointF,PressureIn,WindDirection,WindDirectionDegrees,WindSpeedMPH,WindSpeedGustMPH,Humidity,HourlyPrecipIn,Conditions,Clouds,dailyrainin,SolarRadiationWatts/m^2,SoftwareType,DateUTC
2013-04-11 00:04:00,59.6,58.0,29.91,WNW,284,0.0,1.0,95,0.06,,,0.00,0,weatherlink.com 1.10,2013-04-11 04:04:00,
2013-04-11 00:18:00,59.6,59.0,29.90,SSE,150,4.0,6.0,96,0.04,,,0.01,0,weatherlink.com 1.10,2013-04-11 04:18:00,
2013-04-11 00:34:00,59.5,58.0,29.88,SSE,148,0.0,8.0,96,0.04,,,0.02,0,weatherlink.com 1.10,2013-04-11 04:34:00,
2013-04-11 00:48:00,59.4,58.0,29.89,SSW,196,2.0,7.0,96,0.03,,,0.02,0,weatherlink.com 1.10,2013-04-11 04:48:00,
2013-04-11 01:03:00,59.3,59.0,29.92,SW,220,1.0,5.0,97,0.02,,,0.02,0,weatherlink.com 1.10,2013-04-11 05:03:00,
2013-04-11 01:18:00,59.3,59.0,29.89,SE,145,2.0,4.0,97,0.02,,,0.03,0,weatherlink.com 1.10,2013-04-11 05:18:00,
2013-04-11 01:35:00,58.8,58.0,29.87,SE,145,1.0,2.0,97,0.01,,,0.03,0,weatherlink.com 1.10,2013-04-11 05:35:00,
2013-04-11 01:48:00,58.7,58.0,29.86,East,85,0.0,1.0,97,0.01,,,0.03,0,weatherlink.com 1.10,2013-04-11 05:48:00,
2013-04-11 02:03:00,58.5,58.0,29.86,South,176,0.0,3.0,97,0.01,,,0.03,0,weatherlink.com 1.10,2013-04-11 06:03:00,
2013-04-11 02:18:00,58.5,58.0,29.84,South,176,0.0,2.0,97,0.00,,,0.03,0,weatherlink.com 1.10,2013-04-11 06:18:00,
2013-04-11 02:33:00,58.3,58.0,29.83,South,176,1.0,3.0,98,0.00,,,0.03,0,weatherlink.com 1.10,2013-04-11 06:33:00,
2013-04-11 02:50:00,58.5,58.0,29.82,South,176,2.0,4.0,98,0.00,,,0.03,0,weatherlink.com 1.10,2013-04-11 06:50:00,
2013-04-11 03:03:00,58.7,58.0,29.81,South,182,3.0,5.0,98,0.00,,,0.03,0,weatherlink.com 1.10,2013-04-11 07:03:00,
2013-04-11 03:18:00,59.0,59.0,29.79,South,189,3.0,7.0,98,0.00,,,0.03,0,weatherlink.com 1.10,2013-04-11 07:18:00,
2013-04-11 03:33:00,59.3,59.0,29.80,SW,235,5.0,7.0,98,0.00,,,0.03,0,weatherlink.com 1.10,2013-04-11 07:33:00,
2013-04-11 03:48:00,59.3,59.0,29.82,NNW,336,1.0,8.0,98,0.00,,,0.03,0,weatherlink.com 1.10,2013-04-11 07:48:00,
2013-04-11 04:04:00,59.2,59.0,29.83,NNW,341,1.0,2.0,98,0.00,,,0.03,0,weatherlink.com 1.10,2013-04-11 08:04:00,
2013-04-11 04:18:00,59.0,59.0,29.84,NNW,341,1.0,2.0,98,0.00,,,0.03,0,weatherlink.com 1.10,2013-04-11 08:18:00,
2013-04-11 04:33:00,58.8,58.0,29.85,NNW,341,0.0,0.0,98,0.00,,,0.03,0,weatherlink.com 1.10,2013-04-11 08:33:00,
2013-04-11 04:48:00,58.8,58.0,29.86,NW,305,1.0,3.0,98,0.00,,,0.03,0,weatherlink.com 1.10,2013-04-11 08:48:00,
2013-04-11 05:03:00,58.4,58.0,29.87,NW,305,0.0,0.0,98,0.00,,,0.03,0,weatherlink.com 1.10,2013-04-11 09:03:00,
2013-04-11 05:19:00,57.9,57.0,29.87,NW,305,0.0,0.0,98,0.00,,,0.03,0,weatherlink.com 1.10,2013-04-11 09:19:00,
2013-04-11 05:33:00,58.1,58.0,29.88,NW,305,0.0,0.0,98,0.00,,,0.03,0,weatherlink.com 1.10,2013-04-11 09:33:00,
2013-04-11 05:50:00,58.0,58.0,29.88,NW,305,0.0,0.0,98,0.00,,,0.03,0,weatherlink.com 1.10,2013-04-11 09:50:00,
2013-04-11 06:04:00,57.7,57.0,29.89,NW,305,0.0,0.0,98,0.00,,,0.03,0,weatherlink.com 1.10,2013-04-11 10:04:00,
2013-04-11 06:18:00,57.3,57.0,29.90,NW,305,0.0,0.0,98,0.00,,,0.03,0,weatherlink.com 1.10,2013-04-11 10:18:00,
2013-04-11 06:34:00,57.1,57.0,29.90,NW,304,0.0,0.0,98,0.00,,,0.03,5,weatherlink.com 1.10,2013-04-11 10:34:00,
2013-04-11 06:50:00,56.6,56.0,29.91,NW,304,0.0,0.0,98,0.00,,,0.03,11,weatherlink.com 1.10,2013-04-11 10:50:00,
2013-04-11 07:04:00,57.1,57.0,29.92,NW,304,0.0,0.0,98,0.00,,,0.03,26,weatherlink.com 1.10,2013-04-11 11:04:00,
2013-04-11 07:19:00,57.9,58.0,29.93,NW,304,0.0,0.0,99,0.00,,,0.03,33,weatherlink.com 1.10,2013-04-11 11:19:00,
2013-04-11 07:34:00,58.6,58.0,29.92,NW,304,0.0,0.0,99,0.00,,,0.03,100,weatherlink.com 1.10,2013-04-11 11:34:00,
2013-04-11 07:49:00,60.1,60.0,29.92,ENE,57,0.0,0.0,99,0.00,,,0.03,153,weatherlink.com 1.10,2013-04-11 11:49:00,
2013-04-11 08:04:00,60.8,61.0,29.92,ENE,58,3.0,6.0,99,0.00,,,0.03,79,weatherlink.com 1.10,2013-04-11 12:04:00,
2013-04-11 08:19:00,61.0,61.0,29.92,SE,129,4.0,9.0,98,0.00,,,0.03,79,weatherlink.com 1.10,2013-04-11 12:19:00,
2013-04-11 08:34:00,59.3,59.0,29.92,ENE,66,2.0,11.0,97,0.00,,,0.03,70,weatherlink.com 1.10,2013-04-11 12:34:00,
2013-04-11 08:49:00,58.0,57.0,29.92,East,84,5.0,11.0,97,0.00,,,0.03,93,weatherlink.com 1.10,2013-04-11 12:49:00,
2013-04-11 09:04:00,58.0,57.0,29.92,NE,48,5.0,9.0,97,0.00,,,0.03,107,weatherlink.com 1.10,2013-04-11 13:04:00,
2013-04-11 09:19:00,57.7,57.0,29.93,NNE,31,8.0,13.0,96,0.00,,,0.03,104,weatherlink.com 1.10,2013-04-11 13:19:00,
2013-04-11 09:35:00,57.8,56.0,29.93,East,101,7.0,10.0,95,0.00,,,0.03,105,weatherlink.com 1.10,2013-04-11 13:35:00,
2013-04-11 09:49:00,57.7,56.0,29.94,East,82,8.0,12.0,94,0.00,,,0.03,176,weatherlink.com 1.10,2013-04-11 13:49:00,
2013-04-11 10:05:00,57.3,56.0,29.95,ENE,65,7.0,13.0,95,0.00,,,0.03,121,weatherlink.com 1.10,2013-04-11 14:05:00,
2013-04-11 10:19:00,56.8,55.0,29.96,ENE,74,3.0,10.0,95,0.00,,,0.03,113,weatherlink.com 1.10,2013-04-11 14:19:00,
2013-04-11 10:34:00,56.6,55.0,29.96,East,84,10.0,11.0,95,0.00,,,0.03,211,weatherlink.com 1.10,2013-04-11 14:34:00,
2013-04-11 10:49:00,56.8,55.0,29.97,East,88,7.0,14.0,92,0.00,,,0.03,132,weatherlink.com 1.10,2013-04-11 14:49:00,
2013-04-11 11:04:00,56.4,54.0,29.97,ENE,70,1.0,14.0,92,0.00,,,0.03,192,weatherlink.com 1.10,2013-04-11 15:04:00,
2013-04-11 11:20:00,56.3,54.0,29.98,East,87,8.0,13.0,91,0.00,,,0.03,322,weatherlink.com 1.10,2013-04-11 15:20:00,
2013-04-11 11:34:00,56.4,53.0,29.98,NE,39,10.0,15.0,88,0.00,,,0.03,295,weatherlink.com 1.10,2013-04-11 15:34:00,
2013-04-11 11:50:00,55.9,53.0,29.98,ENE,62,11.0,14.0,89,0.00,,,0.03,199,weatherlink.com 1.10,2013-04-11 15:50:00,
2013-04-11 12:05:00,55.0,52.0,29.98,East,98,7.0,14.0,90,0.00,,,0.03,193,weatherlink.com 1.10,2013-04-11 16:05:00,
2013-04-11 12:20:00,54.8,52.0,29.98,ENE,59,5.0,14.0,89,0.00,,,0.03,204,weatherlink.com 1.10,2013-04-11 16:20:00,
2013-04-11 12:35:00,54.9,52.0,29.98,ENE,59,4.0,14.0,89,0.00,,,0.03,236,weatherlink.com 1.10,2013-04-11 16:35:00,
2013-04-11 12:50:00,55.3,52.0,29.98,East,87,6.0,16.0,88,0.00,,,0.03,241,weatherlink.com 1.10,2013-04-11 16:50:00,
2013-04-11 13:05:00,55.9,52.0,29.98,SSE,150,6.0,11.0,87,0.00,,,0.03,244,weatherlink.com 1.10,2013-04-11 17:05:00,
2013-04-11 13:20:00,55.8,52.0,29.98,NNE,32,4.0,14.0,86,0.00,,,0.03,211,weatherlink.com 1.10,2013-04-11 17:20:00,
2013-04-11 13:34:00,56.8,51.0,29.98,East,98,11.0,14.0,82,0.00,,,0.03,325,weatherlink.com 1.10,2013-04-11 17:34:00,
2013-04-11 13:49:00,58.1,52.0,29.98,ENE,70,1.0,10.0,79,0.00,,,0.03,478,weatherlink.com 1.10,2013-04-11 17:49:00,
2013-04-11 14:06:00,58.5,52.0,29.99,East,84,9.0,12.0,78,0.00,,,0.03,345,weatherlink.com 1.10,2013-04-11 18:06:00,
2013-04-11 14:20:00,58.1,51.0,29.99,East,84,8.0,14.0,77,0.00,,,0.03,418,weatherlink.com 1.10,2013-04-11 18:20:00,
2013-04-11 14:35:00,57.4,51.0,29.99,East,87,10.0,14.0,78,0.00,,,0.03,415,weatherlink.com 1.10,2013-04-11 18:35:00,
2013-04-11 14:50:00,57.3,51.0,29.98,SSE,152,5.0,15.0,79,0.00,,,0.03,411,weatherlink.com 1.10,2013-04-11 18:50:00,
2013-04-11 15:05:00,57.0,51.0,29.97,East,91,13.0,22.0,80,0.00,,,0.03,473,weatherlink.com 1.10,2013-04-11 19:05:00,
2013-04-11 15:20:00,56.9,51.0,29.96,SE,137,4.0,16.0,80,0.00,,,0.03,492,weatherlink.com 1.10,2013-04-11 19:20:00,
2013-04-11 15:36:00,56.3,51.0,29.96,ESE,115,7.0,16.0,82,0.00,,,0.03,348,weatherlink.com 1.10,2013-04-11 19:36:00,
2013-04-11 15:50:00,55.3,51.0,29.97,East,85,8.0,16.0,84,0.00,,,0.03,244,weatherlink.com 1.10,2013-04-11 19:50:00,
2013-04-11 16:05:00,53.9,50.0,29.98,SE,130,5.0,15.0,85,0.00,,,0.03,178,weatherlink.com 1.10,2013-04-11 20:05:00,
2013-04-11 16:21:00,52.7,49.0,29.98,ESE,111,8.0,23.0,86,0.00,,,0.03,178,weatherlink.com 1.10,2013-04-11 20:21:00,
2013-04-11 16:36:00,52.4,48.0,29.98,ESE,111,11.0,18.0,86,0.00,,,0.03,144,weatherlink.com 1.10,2013-04-11 20:36:00,
2013-04-11 17:07:00,51.3,47.0,29.99,ESE,112,15.0,21.0,86,0.00,,,0.03,141,weatherlink.com 1.10,2013-04-11 21:07:00,
2013-04-11 17:38:00,50.8,47.0,30.00,East,79,3.0,22.0,86,0.00,,,0.03,105,weatherlink.com 1.10,2013-04-11 21:38:00,
2013-04-11 17:51:00,50.4,47.0,30.00,SE,136,4.0,17.0,87,0.00,,,0.03,90,weatherlink.com 1.10,2013-04-11 21:51:00,
2013-04-11 18:06:00,50.0,46.0,30.00,South,175,7.0,18.0,87,0.00,,,0.03,60,weatherlink.com 1.10,2013-04-11 22:06:00,
2013-04-11 18:21:00,49.5,46.0,30.01,SE,130,8.0,21.0,87,0.00,,,0.03,44,weatherlink.com 1.10,2013-04-11 22:21:00,
2013-04-11 18:36:00,48.9,46.0,30.01,East,100,10.0,17.0,88,0.00,,,0.03,18,weatherlink.com 1.10,2013-04-11 22:36:00,
2013-04-11 18:51:00,48.7,46.0,30.00,ESE,117,7.0,19.0,89,0.00,,,0.03,18,weatherlink.com 1.10,2013-04-11 22:51:00,
2013-04-11 19:06:00,48.3,45.0,30.00,East,88,10.0,18.0,89,0.00,,,0.03,5,weatherlink.com 1.10,2013-04-11 23:06:00,
2013-04-11 19:22:00,47.9,45.0,30.01,ESE,113,9.0,18.0,89,0.00,,,0.03,0,weatherlink.com 1.10,2013-04-11 23:22:00,
2013-04-11 19:36:00,47.8,45.0,30.01,ESE,118,3.0,16.0,90,0.00,,,0.03,0,weatherlink.com 1.10,2013-04-11 23:36:00,
2013-04-11 20:06:00,47.4,45.0,30.01,ESE,115,11.0,17.0,91,0.00,,,0.03,0,weatherlink.com 1.10,2013-04-12 00:06:00,
2013-04-11 20:21:00,47.2,45.0,30.00,ESE,117,15.0,18.0,91,0.00,,,0.03,0,weatherlink.com 1.10,2013-04-12 00:21:00,
2013-04-11 20:37:00,47.0,45.0,30.00,ESE,123,7.0,16.0,92,0.00,,,0.03,0,weatherlink.com 1.10,2013-04-12 00:37:00,
2013-04-11 20:51:00,46.9,45.0,30.00,ESE,103,10.0,16.0,92,0.00,,,0.03,0,weatherlink.com 1.10,2013-04-12 00:51:00,
2013-04-11 21:06:00,47.0,45.0,30.00,East,85,15.0,17.0,92,0.00,,,0.03,0,weatherlink.com 1.10,2013-04-12 01:06:00,
2013-04-11 21:36:00,47.2,45.0,30.01,ESE,118,5.0,13.0,91,0.00,,,0.03,0,weatherlink.com 1.10,2013-04-12 01:36:00,
2013-04-11 21:52:00,47.2,45.0,30.02,ENE,75,8.0,15.0,91,0.00,,,0.03,0,weatherlink.com 1.10,2013-04-12 01:52:00,
2013-04-11 22:06:00,47.3,45.0,30.02,East,97,11.0,12.0,90,0.00,,,0.03,0,weatherlink.com 1.10,2013-04-12 02:06:00,
2013-04-11 22:21:00,47.2,45.0,30.02,ENE,74,5.0,15.0,90,0.00,,,0.03,0,weatherlink.com 1.10,2013-04-12 02:21:00,
2013-04-11 22:36:00,47.1,44.0,30.02,East,86,11.0,15.0,90,0.00,,,0.03,0,weatherlink.com 1.10,2013-04-12 02:36:00,
2013-04-11 22:52:00,46.9,44.0,30.02,NE,35,9.0,18.0,90,0.00,,,0.03,0,weatherlink.com 1.10,2013-04-12 02:52:00,
2013-04-11 23:08:00,46.8,44.0,30.02,East,80,9.0,17.0,90,0.00,,,0.03,0,weatherlink.com 1.10,2013-04-12 03:08:00,
2013-04-11 23:22:00,46.7,44.0,30.03,ENE,59,4.0,16.0,90,0.00,,,0.03,0,weatherlink.com 1.10,2013-04-12 03:22:00,
2013-04-11 23:38:00,46.6,44.0,30.01,ENE,74,7.0,14.0,90,0.00,,,0.03,0,weatherlink.com 1.10,2013-04-12 03:38:00,
2013-04-11 23:52:00,46.5,44.0,30.01,ESE,115,15.0,21.0,90,0.00,,,0.03,0,weatherlink.com 1.10,2013-04-12 03:52:00,